Weather History for KTCM - January, 2012

Change the Weather History Date:

Monday, January 16, 2012

  Actual Average Record
Temperature  
Mean Temperature 27 °F -  
Max Temperature 34 °F 44 °F 55 °F (1974)
Min Temperature 20 °F 33 °F 19 °F (1993)
Degree Days  
Heating Degree Days 38    
Moisture  
Dew Point 31 °F    
Average Humidity 97    
Maximum Humidity 100    
Minimum Humidity 90    
Precipitation  
Precipitation 0.05 in - - ()
Sea Level Pressure  
Sea Level Pressure 30.07 in    
Wind  
Wind Speed 7 mph (South)    
Max Wind Speed 14 mph    
Max Gust Speed 20 mph    
Visibility 10 miles    
Events Snow    
Averages and records for this station are not official NWS values.
T = Trace of Precipitation, MM = Missing Value Source: NWS Daily Summary

Daily Weather History Graph

Daily Weather History Graph

Search for Another Location

Airport or City:

Trip Planner

Search our weather history database for the weather conditions in past years. The results will help you decide how hot, cold, wet, or windy it might be!

Date:

Astronomy

Jan. 16, 2012 Rise Set
Actual Time 7:51 AM PST 4:48 PM PST
Civil Twilight 7:17 AM PST 5:22 PM PST
Nautical Twilight 6:39 AM PST 6:00 PM PST
Astronomical Twilight 6:02 AM PST 6:36 PM PST
Moon 12:59 AM PST (1/16) 11:11 AM PST (1/16)
Length of Visible Light 10h 05m
Length of Day
8h 56m
Last Quarter, 45% of the Moon is Illuminated
Jan 16
Last Quarter
Jan 22
New
Jan 30
First Quarter
Feb 7
Full
Feb 14
Last Quarter

Hourly Weather History & Observations

Time (PST) Temp. Windchill Dew Point Humidity Pressure Visibility Wind Dir Wind Speed Gust Speed Precip Events Conditions
12:21 AM 28.4 °F - 28.4 °F 100% 30.13 in 10.0 mi Calm Calm - N/A   Overcast
12:27 AM 28.4 °F 24.6 °F 28.4 °F 100% 30.13 in 10.0 mi South 3.5 mph - N/A   Overcast
12:55 AM 28.2 °F 24.4 °F 28.0 °F 99% 30.13 in 10.0 mi South 3.5 mph - N/A   Overcast
1:55 AM 26.2 °F 22.1 °F 25.7 °F 98% 30.14 in 10.0 mi South 3.5 mph - N/A   Mostly Cloudy
1:59 AM 26.6 °F 22.6 °F 24.8 °F 93% 30.14 in 10.0 mi South 3.5 mph - N/A   Mostly Cloudy
2:11 AM 28.4 °F 24.6 °F 26.6 °F 93% 30.14 in 10.0 mi South 3.5 mph - N/A   Mostly Cloudy
2:55 AM 26.6 °F 22.6 °F 26.2 °F 99% 30.15 in 10.0 mi South 3.5 mph - N/A   Overcast
3:55 AM 23.4 °F 14.3 °F 23.0 °F 99% 30.15 in 10.0 mi South 8.1 mph - N/A   Scattered Clouds
4:55 AM 20.8 °F 11.2 °F 19.9 °F 96% 30.13 in 10.0 mi South 8.1 mph - N/A   Clear
5:55 AM 26.6 °F 18.2 °F 26.4 °F 99% 30.14 in 10.0 mi South 8.1 mph - N/A   Overcast
6:55 AM 24.4 °F 17.5 °F 24.1 °F 99% 30.14 in 10.0 mi South 5.8 mph - N/A   Mostly Cloudy
7:55 AM 25.2 °F 16.5 °F 24.8 °F 99% 30.14 in 10.0 mi South 8.1 mph - N/A   Mostly Cloudy
8:55 AM 28.4 °F 19.7 °F 27.5 °F 96% 30.14 in 10.0 mi South 9.2 mph - N/A   Overcast
9:28 AM 30.2 °F 22.6 °F 28.4 °F 93% 30.14 in 10.0 mi South 8.1 mph - N/A   Overcast
9:47 AM 30.2 °F 22.6 °F 28.4 °F 93% 30.14 in 10.0 mi South 8.1 mph - N/A   Overcast
9:55 AM 30.0 °F 22.4 °F 28.8 °F 95% 30.14 in 10.0 mi South 8.1 mph - 0.00 in   Overcast
10:18 AM 30.2 °F 21.9 °F 30.2 °F 100% 30.14 in 9.0 mi South 9.2 mph - N/A   Overcast
10:22 AM 30.2 °F 21.3 °F 30.2 °F 100% 30.14 in 8.0 mi South 10.4 mph - N/A Snow Light Snow
10:55 AM 31.3 °F 24.7 °F 30.4 °F 96% 30.14 in 6.0 mi South 6.9 mph - 0.00 in Snow Light Snow
11:54 AM 32.0 °F 23.0 °F 30.2 °F 93% 30.12 in 10.0 mi South 11.5 mph - N/A   Overcast
11:55 AM 32.4 °F 24.0 °F 31.1 °F 95% 30.12 in 10.0 mi South 10.4 mph - 0.00 in   Light Freezing Drizzle
12:14 PM 32.0 °F 23.6 °F 32.0 °F 100% 30.11 in 10.0 mi South 10.4 mph - N/A Snow Light Snow Showers
12:24 PM 33.8 °F 24.3 °F 32.0 °F 93% 30.11 in 10.0 mi SSW 13.8 mph - N/A   Mostly Cloudy
12:55 PM 33.8 °F 24.8 °F 31.6 °F 92% 30.10 in 10.0 mi SSW 12.7 mph - 0.00 in   Scattered Clouds
1:55 PM 34.3 °F 25.0 °F 31.6 °F 90% 30.09 in 10.0 mi SSW 13.8 mph - N/A   Scattered Clouds
2:55 PM 34.3 °F 27.0 °F 32.2 °F 92% 30.09 in 10.0 mi SSW 9.2 mph - N/A   Mostly Cloudy
3:09 PM 33.8 °F 25.3 °F 32.0 °F 93% 30.10 in 10.0 mi SSW 11.5 mph - N/A   Overcast
3:12 PM 33.8 °F 26.4 °F 32.0 °F 93% 30.10 in 10.0 mi SSW 9.2 mph - N/A Snow Light Snow
3:55 PM 33.3 °F 24.6 °F 32.7 °F 98% 30.09 in 6.0 mi South 11.5 mph - 0.00 in Snow Light Snow
4:47 PM 32.0 °F 23.6 °F 32.0 °F 100% 30.09 in 10.0 mi South 10.4 mph - N/A   Mostly Cloudy
4:48 PM 32.0 °F 23.6 °F 32.0 °F 100% 30.09 in 10.0 mi South 10.4 mph - N/A   Mostly Cloudy
4:55 PM 32.9 °F 25.3 °F 32.7 °F 99% 30.08 in 10.0 mi SSW 9.2 mph - 0.00 in   Scattered Clouds
5:00 PM 33.8 °F 26.4 °F 32.0 °F 93% 30.08 in 10.0 mi South 9.2 mph - N/A Snow Light Snow
5:02 PM 33.8 °F 25.8 °F 32.0 °F 93% 30.08 in 10.0 mi South 10.4 mph - N/A Snow Light Snow
5:27 PM 33.8 °F 27.7 °F 32.0 °F 93% 30.08 in 10.0 mi South 6.9 mph - N/A   Overcast
5:29 PM 33.8 °F 27.0 °F 32.0 °F 93% 30.08 in 10.0 mi South 8.1 mph - N/A Snow Light Snow
5:55 PM 33.3 °F 26.4 °F 32.7 °F 98% 30.07 in 5.0 mi South 8.1 mph - 0.00 in Snow Light Snow
6:17 PM 33.8 °F 26.4 °F 32.0 °F 93% 30.06 in 10.0 mi South 9.2 mph - N/A Snow Light Snow
6:21 PM 33.8 °F 26.4 °F 32.0 °F 93% 30.06 in 10.0 mi South 9.2 mph - N/A   Overcast
6:24 PM 33.8 °F 26.4 °F 32.0 °F 93% 30.06 in 10.0 mi South 9.2 mph - N/A   Overcast
6:27 PM 33.8 °F 26.4 °F 32.0 °F 93% 30.06 in 10.0 mi South 9.2 mph - N/A Snow Light Snow
6:47 PM 32.0 °F 24.2 °F 32.0 °F 100% 30.06 in 10.0 mi South 9.2 mph - N/A   Overcast
6:55 PM 32.9 °F 25.9 °F 32.7 °F 99% 30.06 in 10.0 mi South 8.1 mph - 0.01 in   Overcast
7:22 PM 33.8 °F 25.3 °F 32.0 °F 93% 30.06 in 10.0 mi South 11.5 mph - N/A   Mostly Cloudy
7:55 PM 33.3 °F 24.6 °F 33.1 °F 99% 30.04 in 10.0 mi South 11.5 mph - 0.00 in Snow Light Snow
8:00 PM 33.8 °F 24.8 °F 33.8 °F 100% 30.04 in 10.0 mi South 12.7 mph - N/A   Mostly Cloudy
8:01 PM 33.8 °F 24.3 °F 33.8 °F 100% 30.04 in 10.0 mi South 13.8 mph - N/A Snow Light Snow
8:12 PM 33.8 °F 25.8 °F 33.8 °F 100% 30.04 in 10.0 mi South 10.4 mph - N/A Snow Light Snow
8:13 PM 33.8 °F 25.3 °F 33.8 °F 100% 30.04 in 10.0 mi South 11.5 mph - N/A   Mostly Cloudy
8:41 PM 33.8 °F 25.8 °F 32.0 °F 93% 30.03 in 10.0 mi South 10.4 mph - N/A   Overcast
8:55 PM 33.4 °F 25.9 °F 33.1 °F 99% 30.03 in 10.0 mi South 9.2 mph - 0.00 in   Overcast
8:57 PM 33.8 °F 26.4 °F 33.8 °F 100% 30.03 in 10.0 mi South 9.2 mph - N/A   Mostly Cloudy
9:06 PM 33.8 °F 26.4 °F 33.8 °F 100% 30.02 in 10.0 mi South 9.2 mph - N/A   Mostly Cloudy
9:17 PM 33.8 °F 26.4 °F 33.8 °F 100% 30.03 in 10.0 mi South 9.2 mph - N/A   Mostly Cloudy
9:27 PM 33.8 °F 25.8 °F 33.8 °F 100% 30.02 in 10.0 mi South 10.4 mph - N/A   Mostly Cloudy
9:37 PM 33.8 °F 25.8 °F 32.0 °F 93% 30.02 in 10.0 mi South 10.4 mph - N/A   Mostly Cloudy
9:42 PM 33.8 °F 25.3 °F 33.8 °F 100% 30.02 in 10.0 mi South 11.5 mph - N/A   Overcast
9:50 PM 33.8 °F 25.3 °F 33.8 °F 100% 30.01 in 10.0 mi South 11.5 mph - N/A Snow Light Snow
9:51 PM 33.8 °F 25.3 °F 32.0 °F 93% 29.99 in 10.0 mi South 11.5 mph - N/A Snow Light Snow
9:55 PM 33.6 °F 24.1 °F 33.1 °F 98% 30.01 in 10.0 mi South 13.8 mph - 0.00 in Snow Light Snow
9:59 PM 33.8 °F 24.8 °F 33.8 °F 100% 30.01 in 10.0 mi South 12.7 mph - N/A   Scattered Clouds
10:19 PM 33.8 °F 24.8 °F 33.8 °F 100% 30.01 in 10.0 mi South 12.7 mph 19.6 mph N/A   Mostly Cloudy
10:32 PM 33.8 °F 25.3 °F 33.8 °F 100% 30.00 in 10.0 mi South 11.5 mph - N/A   Mostly Cloudy
10:55 PM 33.6 °F 24.1 °F 33.4 °F 99% 30.00 in 10.0 mi South 13.8 mph - 0.01 in Snow Light Snow
11:25 PM 33.8 °F 26.4 °F 33.8 °F 100% 30.00 in 8.0 mi SSW 9.2 mph - N/A Snow Light Snow
11:34 PM 33.8 °F 25.8 °F 32.0 °F 93% 29.99 in 7.0 mi South 10.4 mph - N/A Snow Light Snow
11:40 PM 33.8 °F 25.8 °F 32.0 °F 93% 29.99 in 7.0 mi South 10.4 mph - N/A Snow Light Snow
11:53 PM 33.8 °F 25.8 °F 32.0 °F 93% 29.99 in 5.0 mi South 10.4 mph - N/A Snow Light Snow
11:55 PM 32.9 °F 25.3 °F 32.7 °F 99% 29.99 in 6.0 mi South 9.2 mph - 0.03 in Snow Light Snow